GSAT0204 (PRN E22)

Last updated on Oct. 31, 2020, 5:53 a.m. UTC

1 40545U 15017B   20304.60190295 -.00000088  00000-0  00000+0 0  9999
2 40545  56.5122  37.7073 0003602 197.1408 162.8585  1.70475451 34825
UTC
Height (km)
Latitude
Longitude
Inclination
Orbital Period
UTC large
Height (km)
Speed (km/s)
/
Latitude / Longitude
Inclination (degrees)
Orbital Period (minutes)
Azimuth
Elevation
Range (km)
Doppler Factor
iOS Compass Heading
iOS Angle

Next 30 passes for location: Hong Kong

Rise time Rise Azimuth (degrees) Set time Set Azimuth (degrees) Duration Max altitude (degrees)

No matching passes for this satellites